CDT,Max TemperatureF,Mean TemperatureF,Min TemperatureF,Max Dew PointF,MeanDew PointF,Min DewpointF,Max Humidity, Mean Humidity, Min Humidity, Max Sea Level PressureIn, Mean Sea Level PressureIn, Min Sea Level PressureIn, Max VisibilityMiles, Mean VisibilityMiles, Min VisibilityMiles, Max Wind SpeedMPH, Mean Wind SpeedMPH, Max Gust SpeedMPH,PrecipitationIn, CloudCover, Events, WindDirDegrees
2011-10-1,74,56,37,45,39,32,100,61,22,30.32,30.25,30.21,10,8,0,10,2,20,0.00,0,Fog,86
2011-10-2,79,60,40,45,39,32,93,56,19,30.29,30.22,30.14,10,10,10,14,3,20,0.00,0,,163
2011-10-3,85,65,45,47,42,39,86,53,20,30.21,30.16,30.10,10,10,10,17,6,24,0.00,0,,125
2011-10-4,90,72,54,48,45,43,77,49,21,30.21,30.13,30.07,10,10,10,16,8,22,0.00,0,,153
2011-10-5,85,69,53,45,41,35,71,44,17,30.14,30.07,30.00,10,10,10,21,8,29,0.00,0,,157
2011-10-6,86,71,55,51,46,39,66,43,20,30.03,29.97,29.90,10,10,10,28,14,36,0.00,0,,151
2011-10-7,84,76,67,61,55,50,58,52,45,30.03,29.98,29.93,10,10,10,26,16,37,0.00,3,,162
2011-10-8,85,73,61,61,57,52,90,65,40,30.09,30.05,30.00,10,10,10,30,10,38,0.00,3,,167
2011-10-9,84,73,61,61,56,50,93,64,34,30.12,30.07,30.00,10,10,10,22,10,30,0.00,2,,157
2011-10-10,74,65,56,61,59,57,100,81,61,30.08,30.03,29.95,10,10,8,12,3,15,0.07,5,Rain,196
2011-10-11,79,65,50,59,53,46,100,66,32,29.97,29.91,29.77,10,5,0,16,5,23,0.00,1,Fog,159
2011-10-12,78,67,56,61,57,49,97,72,47,29.80,29.72,29.65,10,9,3,22,7,28,0.27,3,Rain-Thunderstorm,284
2011-10-13,76,62,48,48,42,33,83,52,21,29.89,29.84,29.80,10,10,10,22,8,30,0.00,0,,286
2011-10-14,71,57,42,44,39,30,82,53,23,30.07,29.98,29.87,10,10,10,18,5,25,0.00,0,,311
2011-10-15,77,57,37,45,38,33,92,58,23,30.13,30.01,29.85,10,10,10,17,5,25,0.00,0,,198
2011-10-16,71,60,49,54,44,36,96,64,31,30.04,29.94,29.78,10,10,10,23,8,31,0.00,0,,346
2011-10-17,57,48,39,41,38,32,89,65,41,30.05,30.00,29.91,10,10,4,21,7,30,T,4,Rain,19
2011-10-18,59,49,38,40,33,24,83,56,28,30.07,30.04,30.01,10,10,10,25,11,35,0.00,2,,320
2011-10-19,53,43,32,27,24,20,75,52,28,30.10,30.07,30.04,10,10,10,23,11,31,0.00,0,,323
2011-10-20,57,43,28,31,27,21,89,62,35,30.13,30.09,30.05,10,10,10,16,5,20,0.00,0,,292
2011-10-21,74,51,27,42,34,25,100,63,25,30.20,30.12,30.04,10,10,4,15,3,18,0.00,0,,197
2011-10-22,76,56,36,43,40,35,93,60,27,30.14,30.07,30.00,10,10,5,12,3,16,0.00,1,,73
2011-10-23,80,60,39,48,43,39,93,58,23,30.04,29.99,29.91,10,8,0,13,2,18,0.00,1,Fog,255
2011-10-24,84,61,37,52,42,35,100,59,17,30.16,30.04,29.90,10,9,0,22,8,29,0.00,0,Fog,178
2011-10-25,84,69,53,55,49,41,73,48,23,29.93,29.79,29.68,10,10,10,29,15,43,0.00,0,,240
2011-10-26,62,54,45,43,40,37,82,62,42,30.11,30.04,29.95,10,10,5,22,11,28,0.08,4,Rain-Thunderstorm,358
2011-10-27,57,45,33,40,34,27,92,64,35,30.22,30.15,30.11,10,10,8,13,2,16,0.01,2,Rain,320
2011-10-28,65,46,26,32,28,23,92,57,21,30.27,30.22,30.17,10,9,2,22,5,29,0.00,1,,310
2011-10-29,70,49,28,30,27,22,92,54,16,30.20,30.05,29.91,10,10,10,20,8,29,0.00,0,,201
2011-10-30,64,50,36,36,29,19,70,45,19,30.11,30.04,29.91,10,10,10,23,8,29,0.00,0,,278
2011-10-31,72,51,29,36,30,25,85,54,22,30.13,30.05,29.96,10,10,10,13,4,21,0.00,0,,187